Regional Weather Roundup
Issued by NWS Cleveland, OH

Home | Current Version | Previous Version | Text Only | Print | Product List | Glossary On
Versions: 1 2 3 4 5 6 7 8 9 10 11 12 13 14 15 16 17 18 19 20 21 22 23 24 25 26 27 28 29 30 31 32 33 34 35 36 37 38 39 40 41 42 43 44 45 46 47 48 49 50
000
ASUS41 KCLE 311010
RWRCLE
OHIO REGIONAL WEATHER ROUNDUP
NATIONAL WEATHER SERVICE WILMINGTON, OH
600 AM EDT FRI JUL 31 2015

NOTE: "FAIR" INDICATES FEW OR NO CLOUDS BELOW 12,000 FEET WITH NO
SIGNIFICANT WEATHER AND/OR OBSTRUCTIONS TO VISIBILITY.

OHZ001>008-015>018-024>027-034-035-043-044-311100-
   NORTHWEST OHIO

CITY           SKY/WX    TMP DP  RH WIND       PRES   REMARKS
DEFIANCE       LGT RAIN  64  58  80 CALM      29.99S
FINDLAY        PTCLDY    65  58  78 SW7       29.98F
TOLEDO EXPRESS CLEAR     64  57  78 W8        29.97S
TOLEDO EXEC    CLEAR     65  57  75 SW6       29.97F
LIMA           MOCLDY    66  60  81 SW7       30.01S
$$

OHZ009>014-019>023-028>033-038-089-311100-
   NORTHEAST OHIO

CITY           SKY/WX    TMP DP  RH WIND       PRES   REMARKS
CLE-HOPKINS    CLEAR     65  57  75 SW7       29.99S
CLE-LAKEFRONT  CLEAR     72  57  59 SW12      29.94F
CUY CO. ARPT   NOT AVBL
LORAIN-ELYRIA  CLEAR     62  56  80 W7        29.97F
ASHTABULA      CLEAR     63  61  93 CALM      29.96S
AKRON-CANTON   CLEAR     64  56  75 W5        29.99S
WOOSTER        CLEAR     57  55  93 CALM      30.00S
MANSFIELD      CLEAR     67  54  63 SW7       30.01S
YOUNGSTOWN     CLEAR     62  58  86 CALM      29.98S
$$

OHZ042-051>053-060>062-070>072-077>081-311100-
  SOUTHWEST OHIO

CITY           SKY/WX    TMP DP  RH WIND       PRES   REMARKS
CINC-COVINGTON CLEAR     66  61  85 CALM      30.05S
CINC-LUNKEN    CLEAR     62  61  96 CALM      30.04F FOG
HAMILTON       CLEAR     61  60  97 CALM      30.05S
DAYTON         CLEAR     63  60  90 W7        30.04S
WRIGHT-PAT AFB CLEAR     64  60  87 SW2       30.03S
DAYTON GENERAL CLEAR     64  60  87 CALM      30.03F
WILMINGTON     CLEAR     62  58  86 W5        30.04S
$$

OHZ036-037-039>041-045>050-054>059-063>069-073>076-082>088-311100-
  CENTRAL AND SOUTHEAST OHIO

CITY           SKY/WX    TMP DP  RH WIND       PRES   REMARKS
COLUMBUS       CLEAR     64  60  87 SE3       30.01F
OSU AIRPORT    CLEAR     62  57  83 W6        30.01F
BOLTON FIELD   CLEAR     63  58  84 W5        30.02S
RICKENBACK AFB CLEAR     60  58  94 CALM      30.01S
NEWARK         CLEAR     58  56  93 CALM      30.01S
MARION         CLEAR     66  55  67 W7        30.00F
LANCASTER      CLEAR     58  56  93 E3        30.02S
ZANESVILLE     CLEAR     59  55  87 CALM      30.01S
NEW PHILLY     CLEAR     58  58 100 CALM      30.01R
$$


USA.gov is the U.S. government's official web portal to all federal, state and local government web resources and services.